Time,TemperatureF,DewpointF,PressureIn,WindDirection,WindDirectionDegrees,WindSpeedMPH,WindSpeedGustMPH,Humidity,HourlyPrecipIn,Conditions,Clouds,dailyrainin,SoftwareType,DateUTC
2013-02-13 00:14:00,24.9,18.1,29.75,WNW,293,5.8,5.8,75,0.00,,,0.00,WUHU21623XXSP,2013-02-13 05:14:00,
2013-02-13 01:14:00,25.1,18.3,29.75,SSW,203,0.0,0.0,75,0.00,,,0.00,WUHU21623XXSP,2013-02-13 06:14:00,
2013-02-13 02:14:00,25.5,19.0,29.74,South,180,2.7,2.7,76,0.00,,,0.00,WUHU21623XXSP,2013-02-13 07:14:00,
2013-02-13 03:14:00,25.6,19.4,29.73,West,270,1.6,1.6,77,0.00,,,0.00,WUHU21623XXSP,2013-02-13 08:14:00,
2013-02-13 04:14:00,25.8,19.6,29.72,West,270,0.0,0.0,77,0.00,,,0.00,WUHU21623XXSP,2013-02-13 09:14:00,
2013-02-13 05:14:00,25.6,19.7,29.70,South,180,3.6,3.6,78,0.00,,,0.00,WUHU21623XXSP,2013-02-13 10:14:00,
2013-02-13 06:14:00,25.8,19.9,29.69,South,180,2.0,2.0,78,0.00,,,0.00,WUHU21623XXSP,2013-02-13 11:14:00,
2013-02-13 07:14:00,25.5,19.9,29.67,SSW,203,3.6,3.6,79,0.00,,,0.00,WUHU21623XXSP,2013-02-13 12:14:00,
2013-02-13 08:14:00,23.5,18.5,29.65,South,180,0.0,0.0,81,0.00,,,0.00,WUHU21623XXSP,2013-02-13 13:14:00,
2013-02-13 09:14:00,26.5,21.2,29.65,SSW,203,1.8,1.8,80,0.00,,,0.00,WUHU21623XXSP,2013-02-13 14:14:00,
2013-02-13 10:14:00,28.0,22.0,29.64,SSW,203,2.5,2.5,78,0.00,,,0.00,WUHU21623XXSP,2013-02-13 15:14:00,
2013-02-13 11:14:00,29.6,23.3,29.63,South,180,0.0,0.0,77,0.00,,,0.00,WUHU21623XXSP,2013-02-13 16:14:00,
2013-02-13 12:14:00,31.8,24.5,29.63,South,180,10.1,10.1,74,0.00,,,0.00,WUHU21623XXSP,2013-02-13 17:14:00,
2013-02-13 12:55:00,32.8,24.8,29.61,SSE,157,8.9,8.9,72,0.00,,,0.00,WUHU21623XXSP,2013-02-13 17:55:00,
2013-02-13 13:01:00,32.8,24.8,29.61,South,180,7.2,8.9,72,0.00,,,0.00,WUHU21623XXSP,2013-02-13 18:01:00,
2013-02-13 13:06:00,33.2,25.2,29.61,South,180,4.0,7.2,72,0.00,,,0.00,WUHU21623XXSP,2013-02-13 18:06:00,
2013-02-13 13:11:00,33.4,25.4,29.61,South,180,9.6,9.6,72,0.00,,,0.00,WUHU21623XXSP,2013-02-13 18:11:00,
2013-02-13 13:16:00,33.4,25.4,29.61,SSW,202,3.6,9.6,72,0.00,,,0.00,WUHU21623XXSP,2013-02-13 18:16:00,
2013-02-13 13:21:00,33.2,25.2,29.61,South,180,8.5,8.5,72,0.00,,,0.00,WUHU21623XXSP,2013-02-13 18:21:00,
2013-02-13 13:26:00,33.2,25.2,29.61,SSW,202,6.7,8.5,72,0.00,,,0.00,WUHU21623XXSP,2013-02-13 18:26:00,
2013-02-13 13:31:00,33.2,24.9,29.61,SSW,202,0.0,6.7,71,0.00,,,0.00,WUHU21623XXSP,2013-02-13 18:31:00,
2013-02-13 13:36:00,33.2,24.9,29.61,SW,225,8.7,8.7,71,0.00,,,0.00,WUHU21623XXSP,2013-02-13 18:36:00,
2013-02-13 13:41:00,33.2,25.2,29.61,SSE,157,5.6,8.7,72,0.00,,,0.00,WUHU21623XXSP,2013-02-13 18:41:00,
2013-02-13 13:46:00,33.2,25.2,29.60,South,180,0.0,5.6,72,0.00,,,0.00,WUHU21623XXSP,2013-02-13 18:46:00,
2013-02-13 13:51:00,33.2,24.9,29.59,SSE,157,0.0,4.5,71,0.00,,,0.00,WUHU21623XXSP,2013-02-13 18:51:00,
2013-02-13 13:56:00,33.4,25.4,29.59,SSW,202,7.2,7.2,72,0.00,,,0.00,WUHU21623XXSP,2013-02-13 18:56:00,
2013-02-13 14:03:00,33.9,25.6,29.59,SSW,202,6.3,7.2,71,0.00,,,0.00,WUHU21623XXSP,2013-02-13 19:03:00,
2013-02-13 14:08:00,34.3,25.9,29.59,SSW,202,0.0,6.3,71,0.00,,,0.00,WUHU21623XXSP,2013-02-13 19:08:00,
2013-02-13 14:13:00,34.5,25.8,29.59,South,180,4.5,4.5,70,0.00,,,0.00,WUHU21623XXSP,2013-02-13 19:13:00,
2013-02-13 14:18:00,34.3,25.6,29.59,SSE,157,6.5,6.5,70,0.00,,,0.00,WUHU21623XXSP,2013-02-13 19:18:00,
2013-02-13 14:23:00,33.9,25.2,29.59,South,180,8.9,8.9,70,0.00,,,0.00,WUHU21623XXSP,2013-02-13 19:23:00,
2013-02-13 14:29:00,33.7,25.0,29.58,SW,225,7.4,8.9,70,0.00,,,0.00,WUHU21623XXSP,2013-02-13 19:29:00,
2013-02-13 14:34:00,33.6,24.9,29.59,SSW,202,7.2,7.4,70,0.00,,,0.00,WUHU21623XXSP,2013-02-13 19:34:00,
2013-02-13 14:46:00,33.9,25.6,29.58,SSW,202,0.0,0.0,71,0.00,,,0.00,WUHU21623XXSP,2013-02-13 19:46:00,
2013-02-13 14:51:00,33.9,25.6,29.58,SW,225,0.0,0.0,71,0.00,,,0.00,WUHU21623XXSP,2013-02-13 19:51:00,
2013-02-13 14:56:00,34.3,25.9,29.58,South,180,0.0,0.0,71,0.00,,,0.00,WUHU21623XXSP,2013-02-13 19:56:00,
2013-02-13 15:01:00,34.6,25.9,29.57,SSW,202,3.1,3.1,70,0.00,,,0.00,WUHU21623XXSP,2013-02-13 20:01:00,
2013-02-13 15:06:00,34.6,25.9,29.57,SSW,202,10.7,10.7,70,0.00,,,0.00,WUHU21623XXSP,2013-02-13 20:06:00,
2013-02-13 15:12:00,34.8,26.1,29.57,West,270,5.4,10.7,70,0.00,,,0.00,WUHU21623XXSP,2013-02-13 20:12:00,
2013-02-13 15:17:00,34.8,26.1,29.58,South,180,7.2,7.2,70,0.00,,,0.00,WUHU21623XXSP,2013-02-13 20:17:00,
2013-02-13 15:22:00,34.8,26.1,29.58,South,180,7.2,7.2,70,0.00,,,0.00,WUHU21623XXSP,2013-02-13 20:22:00,
2013-02-13 15:27:00,35.2,26.5,29.57,WSW,247,0.0,7.2,70,0.00,,,0.00,WUHU21623XXSP,2013-02-13 20:27:00,
2013-02-13 15:32:00,35.5,26.4,29.57,WSW,247,0.0,0.0,69,0.00,,,0.00,WUHU21623XXSP,2013-02-13 20:32:00,
2013-02-13 15:37:00,35.5,26.4,29.58,WSW,247,4.9,4.9,69,0.00,,,0.00,WUHU21623XXSP,2013-02-13 20:37:00,
2013-02-13 15:42:00,35.2,26.1,29.58,West,270,0.0,4.9,69,0.00,,,0.00,WUHU21623XXSP,2013-02-13 20:42:00,
2013-02-13 15:47:00,35.0,25.9,29.57,South,180,0.0,0.0,69,0.00,,,0.00,WUHU21623XXSP,2013-02-13 20:47:00,
2013-02-13 15:52:00,34.8,25.7,29.57,SSW,202,0.0,0.0,69,0.00,,,0.00,WUHU21623XXSP,2013-02-13 20:52:00,
2013-02-13 15:57:00,34.5,25.4,29.57,West,270,1.6,1.6,69,0.00,,,0.00,WUHU21623XXSP,2013-02-13 20:57:00,
2013-02-13 16:02:00,34.1,25.1,29.57,West,270,0.0,1.6,69,0.00,,,0.00,WUHU21623XXSP,2013-02-13 21:02:00,
2013-02-13 16:07:00,33.7,25.0,29.58,NNW,337,4.5,4.5,70,0.00,,,0.00,WUHU21623XXSP,2013-02-13 21:07:00,
2013-02-13 16:12:00,33.4,24.7,29.58,West,270,0.0,4.5,70,0.00,,,0.00,WUHU21623XXSP,2013-02-13 21:12:00,
2013-02-13 16:17:00,33.4,25.1,29.58,SW,225,2.2,2.2,71,0.00,,,0.00,WUHU21623XXSP,2013-02-13 21:17:00,
2013-02-13 16:22:00,33.4,25.1,29.58,WNW,292,0.0,2.2,71,0.00,,,0.00,WUHU21623XXSP,2013-02-13 21:22:00,
2013-02-13 16:27:00,33.2,24.9,29.58,WNW,292,0.0,0.0,71,0.00,,,0.00,WUHU21623XXSP,2013-02-13 21:27:00,
2013-02-13 16:33:00,33.2,24.9,29.57,WNW,292,1.6,1.6,71,0.00,,,0.00,WUHU21623XXSP,2013-02-13 21:33:00,
2013-02-13 16:38:00,33.2,24.9,29.58,West,270,2.2,2.2,71,0.00,,,0.00,WUHU21623XXSP,2013-02-13 21:38:00,
2013-02-13 16:43:00,33.0,24.7,29.58,WNW,292,0.0,2.2,71,0.00,,,0.00,WUHU21623XXSP,2013-02-13 21:43:00,
2013-02-13 16:48:00,32.8,24.8,29.58,WNW,292,0.0,0.0,72,0.00,,,0.00,WUHU21623XXSP,2013-02-13 21:48:00,
2013-02-13 16:53:00,32.8,24.8,29.58,WSW,247,0.0,0.0,72,0.00,,,0.00,WUHU21623XXSP,2013-02-13 21:53:00,
2013-02-13 16:58:00,32.8,24.8,29.58,WSW,247,0.0,0.0,72,0.00,,,0.00,WUHU21623XXSP,2013-02-13 21:58:00,
2013-02-13 17:03:00,32.8,24.8,29.58,West,270,0.0,0.0,72,0.00,,,0.00,WUHU21623XXSP,2013-02-13 22:03:00,
2013-02-13 17:08:00,32.8,24.8,29.58,SSW,202,0.0,0.0,72,0.00,,,0.00,WUHU21623XXSP,2013-02-13 22:08:00,
2013-02-13 17:13:00,32.7,25.1,29.58,WSW,247,0.0,0.0,73,0.00,,,0.00,WUHU21623XXSP,2013-02-13 22:13:00,
2013-02-13 17:18:00,32.7,25.1,29.58,WSW,247,0.0,0.0,73,0.00,,,0.00,WUHU21623XXSP,2013-02-13 22:18:00,
2013-02-13 17:23:00,32.5,24.9,29.58,WSW,247,0.0,0.0,73,0.00,,,0.00,WUHU21623XXSP,2013-02-13 22:23:00,
2013-02-13 17:28:00,32.5,24.9,29.58,WSW,247,0.0,0.0,73,0.00,,,0.00,WUHU21623XXSP,2013-02-13 22:28:00,
2013-02-13 17:33:00,32.3,24.7,29.58,WSW,247,0.0,0.0,73,0.00,,,0.00,WUHU21623XXSP,2013-02-13 22:33:00,
2013-02-13 17:38:00,32.3,24.7,29.58,WSW,247,0.0,0.0,73,0.00,,,0.00,WUHU21623XXSP,2013-02-13 22:38:00,
2013-02-13 17:43:00,32.1,24.5,29.58,WSW,247,0.0,0.0,73,0.00,,,0.00,WUHU21623XXSP,2013-02-13 22:43:00,
2013-02-13 17:48:00,31.8,24.2,29.58,WSW,247,0.0,0.0,73,0.00,,,0.00,WUHU21623XXSP,2013-02-13 22:48:00,
2013-02-13 17:53:00,31.8,24.2,29.58,WSW,247,0.0,0.0,73,0.00,,,0.00,WUHU21623XXSP,2013-02-13 22:53:00,
2013-02-13 17:58:00,31.6,24.0,29.58,WSW,247,0.0,0.0,73,0.00,,,0.00,WUHU21623XXSP,2013-02-13 22:58:00,
2013-02-13 18:03:00,31.2,23.9,29.58,WSW,247,0.0,0.0,74,0.00,,,0.00,WUHU21623XXSP,2013-02-13 23:03:00,
2013-02-13 18:08:00,30.9,23.6,29.58,WSW,247,0.0,0.0,74,0.00,,,0.00,WUHU21623XXSP,2013-02-13 23:08:00,
2013-02-13 18:13:00,30.7,23.8,29.58,WSW,247,0.0,0.0,75,0.00,,,0.00,WUHU21623XXSP,2013-02-13 23:13:00,
2013-02-13 18:18:00,30.3,23.4,29.58,WSW,247,0.0,0.0,75,0.00,,,0.00,WUHU21623XXSP,2013-02-13 23:18:00,
2013-02-13 18:23:00,30.1,23.2,29.58,WSW,247,0.0,0.0,75,0.00,,,0.00,WUHU21623XXSP,2013-02-13 23:23:00,
2013-02-13 18:28:00,30.1,23.2,29.58,WSW,247,0.0,0.0,75,0.00,,,0.00,WUHU21623XXSP,2013-02-13 23:28:00,
2013-02-13 18:33:00,29.8,23.2,29.58,WSW,247,0.0,0.0,76,0.00,,,0.00,WUHU21623XXSP,2013-02-13 23:33:00,
2013-02-13 18:38:00,29.8,23.2,29.58,WSW,247,0.0,0.0,76,0.00,,,0.00,WUHU21623XXSP,2013-02-13 23:38:00,
2013-02-13 18:43:00,29.6,23.3,29.58,WSW,247,0.0,0.0,77,0.00,,,0.00,WUHU21623XXSP,2013-02-13 23:43:00,
2013-02-13 18:48:00,29.4,23.1,29.58,WSW,247,0.0,0.0,77,0.00,,,0.00,WUHU21623XXSP,2013-02-13 23:48:00,
2013-02-13 18:53:00,29.2,23.2,29.58,WSW,247,0.0,0.0,78,0.00,,,0.00,WUHU21623XXSP,2013-02-13 23:53:00,
2013-02-13 18:59:00,29.2,23.2,29.59,WSW,247,0.0,0.0,78,0.00,,,0.00,WUHU21623XXSP,2013-02-13 23:59:00,
2013-02-13 19:04:00,29.2,23.2,29.59,WSW,247,0.0,0.0,78,0.00,,,0.00,WUHU21623XXSP,2013-02-14 00:04:00,
2013-02-13 19:09:00,29.2,23.2,29.59,WSW,247,0.0,0.0,78,0.00,,,0.00,WUHU21623XXSP,2013-02-14 00:09:00,
2013-02-13 19:14:00,29.1,23.1,29.59,WSW,247,0.0,0.0,78,0.00,,,0.00,WUHU21623XXSP,2013-02-14 00:14:00,
2013-02-13 19:20:00,29.1,23.4,29.59,WSW,247,0.0,0.0,79,0.00,,,0.00,WUHU21623XXSP,2013-02-14 00:20:00,
2013-02-13 19:25:00,29.1,23.4,29.59,WSW,247,0.0,0.0,79,0.00,,,0.00,WUHU21623XXSP,2013-02-14 00:25:00,
2013-02-13 19:30:00,29.2,23.5,29.59,WSW,247,0.0,0.0,79,0.00,,,0.00,WUHU21623XXSP,2013-02-14 00:30:00,
2013-02-13 19:35:00,29.2,23.5,29.59,WSW,247,0.0,0.0,79,0.00,,,0.00,WUHU21623XXSP,2013-02-14 00:35:00,
2013-02-13 19:40:00,29.2,23.8,29.59,WSW,247,0.0,0.0,80,0.00,,,0.00,WUHU21623XXSP,2013-02-14 00:40:00,
2013-02-13 19:54:00,29.2,23.8,29.59,WSW,247,0.0,0.0,80,0.00,,,0.00,WUHU21623XXSP,2013-02-14 00:54:00,
2013-02-13 19:59:00,29.2,23.8,29.59,WSW,247,0.0,0.0,80,0.00,,,0.00,WUHU21623XXSP,2013-02-14 00:59:00,
2013-02-13 20:04:00,29.2,23.8,29.59,WSW,247,0.0,0.0,80,0.00,,,0.00,WUHU21623XXSP,2013-02-14 01:04:00,
2013-02-13 20:09:00,29.4,24.0,29.59,WSW,247,0.0,0.0,80,0.00,,,0.00,WUHU21623XXSP,2013-02-14 01:09:00,
2013-02-13 20:14:00,29.4,24.0,29.60,WSW,247,0.0,0.0,80,0.00,,,0.00,WUHU21623XXSP,2013-02-14 01:14:00,
2013-02-13 20:19:00,29.4,24.0,29.60,WSW,247,0.0,0.0,80,0.00,,,0.00,WUHU21623XXSP,2013-02-14 01:19:00,
2013-02-13 20:24:00,29.4,24.0,29.59,WSW,247,0.0,0.0,80,0.00,,,0.00,WUHU21623XXSP,2013-02-14 01:24:00,
2013-02-13 20:35:00,29.4,24.0,29.59,WSW,247,0.0,0.0,80,0.00,,,0.00,WUHU21623XXSP,2013-02-14 01:35:00,
2013-02-13 20:41:00,29.4,24.0,29.59,WSW,247,0.0,0.0,80,0.00,,,0.00,WUHU21623XXSP,2013-02-14 01:41:00,
2013-02-13 20:46:00,29.4,24.3,29.59,WSW,247,0.0,0.0,81,0.00,,,0.00,WUHU21623XXSP,2013-02-14 01:46:00,
2013-02-13 20:51:00,29.4,24.3,29.59,WSW,247,0.0,0.0,81,0.00,,,0.00,WUHU21623XXSP,2013-02-14 01:51:00,
2013-02-13 20:56:00,29.4,24.3,29.60,WSW,247,0.0,0.0,81,0.00,,,0.00,WUHU21623XXSP,2013-02-14 01:56:00,
2013-02-13 21:01:00,29.4,24.3,29.60,WSW,247,0.0,0.0,81,0.00,,,0.00,WUHU21623XXSP,2013-02-14 02:01:00,
2013-02-13 21:06:00,29.4,24.3,29.59,WSW,247,0.0,0.0,81,0.00,,,0.00,WUHU21623XXSP,2013-02-14 02:06:00,
2013-02-13 21:11:00,29.4,24.3,29.59,WSW,247,0.0,0.0,81,0.00,,,0.00,WUHU21623XXSP,2013-02-14 02:11:00,
2013-02-13 21:16:00,29.4,24.3,29.59,WSW,247,0.0,0.0,81,0.00,,,0.00,WUHU21623XXSP,2013-02-14 02:16:00,
2013-02-13 21:21:00,29.4,24.3,29.59,WSW,247,0.0,0.0,81,0.00,,,0.00,WUHU21623XXSP,2013-02-14 02:21:00,
2013-02-13 21:26:00,29.6,24.5,29.59,WSW,247,0.0,0.0,81,0.00,,,0.00,WUHU21623XXSP,2013-02-14 02:26:00,
2013-02-13 21:31:00,29.6,24.5,29.59,WSW,247,0.0,0.0,81,0.00,,,0.00,WUHU21623XXSP,2013-02-14 02:31:00,
2013-02-13 21:36:00,29.6,24.5,29.59,WSW,247,0.0,0.0,81,0.00,,,0.00,WUHU21623XXSP,2013-02-14 02:36:00,
2013-02-13 21:41:00,29.6,24.5,29.59,WSW,247,0.0,0.0,81,0.00,,,0.00,WUHU21623XXSP,2013-02-14 02:41:00,
2013-02-13 21:46:00,29.6,24.5,29.59,WSW,247,0.0,0.0,81,0.00,,,0.00,WUHU21623XXSP,2013-02-14 02:46:00,
2013-02-13 21:51:00,29.6,24.5,29.59,WSW,247,0.0,0.0,81,0.00,,,0.00,WUHU21623XXSP,2013-02-14 02:51:00,
2013-02-13 21:56:00,29.6,24.5,29.59,WSW,247,0.0,0.0,81,0.00,,,0.00,WUHU21623XXSP,2013-02-14 02:56:00,
2013-02-13 22:01:00,29.6,24.5,29.60,WSW,247,0.0,0.0,81,0.00,,,0.00,WUHU21623XXSP,2013-02-14 03:01:00,
2013-02-13 22:06:00,29.6,24.5,29.59,WSW,247,0.0,0.0,81,0.00,,,0.00,WUHU21623XXSP,2013-02-14 03:06:00,
2013-02-13 22:11:00,29.6,24.5,29.59,WSW,247,0.0,0.0,81,0.00,,,0.00,WUHU21623XXSP,2013-02-14 03:11:00,
2013-02-13 22:16:00,29.6,24.5,29.59,WSW,247,0.0,0.0,81,0.00,,,0.00,WUHU21623XXSP,2013-02-14 03:16:00,
2013-02-13 22:22:00,29.6,24.5,29.59,WSW,247,0.0,0.0,81,0.00,,,0.00,WUHU21623XXSP,2013-02-14 03:22:00,
2013-02-13 22:29:00,29.8,24.7,29.59,WSW,247,0.0,0.0,81,0.00,,,0.00,WUHU21623XXSP,2013-02-14 03:29:00,
2013-02-13 22:34:00,29.8,24.7,29.59,SSW,202,0.0,0.0,81,0.00,,,0.00,WUHU21623XXSP,2013-02-14 03:34:00,
2013-02-13 22:39:00,29.8,24.7,29.58,SSW,202,0.0,0.0,81,0.00,,,0.00,WUHU21623XXSP,2013-02-14 03:39:00,
2013-02-13 22:44:00,29.8,24.7,29.59,South,180,0.0,0.0,81,0.00,,,0.00,WUHU21623XXSP,2013-02-14 03:44:00,
2013-02-13 22:49:00,29.8,24.7,29.58,SSW,202,0.0,0.0,81,0.00,,,0.00,WUHU21623XXSP,2013-02-14 03:49:00,
2013-02-13 22:54:00,29.8,24.7,29.58,SSW,202,0.0,0.0,81,0.00,,,0.00,WUHU21623XXSP,2013-02-14 03:54:00,
2013-02-13 22:59:00,29.8,24.7,29.58,SSW,202,0.0,0.0,81,0.00,,,0.00,WUHU21623XXSP,2013-02-14 03:59:00,
2013-02-13 23:04:00,29.8,24.7,29.58,SSW,202,0.0,0.0,81,0.00,,,0.00,WUHU21623XXSP,2013-02-14 04:04:00,
2013-02-13 23:09:00,29.8,24.7,29.58,South,180,0.0,0.0,81,0.00,,,0.00,WUHU21623XXSP,2013-02-14 04:09:00,
2013-02-13 23:18:00,30.0,24.9,29.58,South,180,0.0,0.0,81,0.00,,,0.00,WUHU21623XXSP,2013-02-14 04:18:00,
2013-02-13 23:23:00,30.0,24.9,29.58,South,180,0.0,0.0,81,0.00,,,0.00,WUHU21623XXSP,2013-02-14 04:23:00,
2013-02-13 23:29:00,30.1,25.0,29.57,South,180,0.0,0.0,81,0.00,,,0.00,WUHU21623XXSP,2013-02-14 04:29:00,
2013-02-13 23:35:00,30.1,25.0,29.57,South,180,0.0,0.0,81,0.00,,,0.00,WUHU21623XXSP,2013-02-14 04:35:00,
2013-02-13 23:40:00,30.1,25.0,29.57,South,180,0.0,0.0,81,0.00,,,0.00,WUHU21623XXSP,2013-02-14 04:40:00,
2013-02-13 23:45:00,30.1,25.0,29.57,South,180,0.0,0.0,81,0.00,,,0.00,WUHU21623XXSP,2013-02-14 04:45:00,
2013-02-13 23:50:00,30.1,25.0,29.58,South,180,0.0,0.0,81,0.00,,,0.00,WUHU21623XXSP,2013-02-14 04:50:00,
2013-02-13 23:55:00,30.1,25.0,29.58,South,180,0.0,0.0,81,0.00,,,0.00,WUHU21623XXSP,2013-02-14 04:55:00,